Weather History for Hazen, ND

Change the Weather History Date:

Monday, November 5, 2012

  Actual Average (KN60) Record (KN60)
Temperature  
Mean Temperature 40 °F -  
Max Temperature 48 °F 39 °F 68 °F (2001)
Min Temperature 32 °F 21 °F 3 °F (2003)
Degree Days  
Heating Degree Days 25    
Moisture  
Dew Point 35 °F    
Average Humidity 87    
Maximum Humidity 100    
Minimum Humidity 70    
Precipitation  
Precipitation 0.00 in - - ()
Sea Level Pressure  
Sea Level Pressure 30.00 in    
Wind  
Wind Speed 8 mph (WSW)    
Max Wind Speed 29 mph    
Max Gust Speed 37 mph    
Visibility 9 miles    
Events Rain    
Averages and records for this station are not official NWS values.
T = Trace of Precipitation, MM = Missing Value Source: NWS Daily Summary

Daily Weather History Graph

Daily Weather History Graph

Search for Another Location

Airport:

Trip Planner

Search our weather history database for the weather conditions in past years. The results will help you decide how hot, cold, wet, or windy it might be!

Date:

Astronomy

Nov. 05, 2012 Rise Set
Actual Time 7:36 AM CST 5:22 PM CST
Civil Twilight 7:04 AM CST 5:55 PM CST
Nautical Twilight 6:27 AM CST 6:31 PM CST
Astronomical Twilight 5:51 AM CST 7:07 PM CST
Moon 11:03 PM CST (11/5) 12:57 PM CST (11/5)
Length of Visible Light 10h 51m
Length of Day
9h 46m
Waning Gibbous, 62% of the Moon is Illuminated
Nov 5
Waning Gibbous
Nov 6
Last Quarter
Nov 13
New
Nov 20
First Quarter
Nov 28
Full

Hourly Weather History & Observations

Time (CST) Temp. Windchill Dew Point Humidity Pressure Visibility Wind Dir Wind Speed Gust Speed Precip Events Conditions
12:15 AM 35.6 °F 31.7 °F 33.8 °F 93% 30.22 in 5.0 mi NNW 4.6 mph - N/A   Overcast
12:35 AM 35.6 °F 31.7 °F 33.8 °F 93% 30.22 in 4.0 mi NW 4.6 mph - N/A   Overcast
12:55 AM 35.6 °F 31.7 °F 33.8 °F 93% 30.22 in 4.0 mi NW 4.6 mph - N/A   Overcast
1:15 AM 35.6 °F 31.7 °F 33.8 °F 93% 30.22 in 3.0 mi NW 4.6 mph - N/A   Overcast
1:35 AM 35.6 °F 31.7 °F 33.8 °F 93% 30.22 in 4.0 mi WNW 4.6 mph - N/A   Overcast
1:55 AM 35.6 °F 28.6 °F 32.0 °F 87% 30.22 in 9.0 mi WNW 9.2 mph - N/A   Overcast
2:15 AM 33.8 °F 29.6 °F 32.0 °F 93% 30.21 in 9.0 mi WNW 4.6 mph - N/A   Overcast
2:35 AM 33.8 °F 30.8 °F 32.0 °F 93% 30.22 in 9.0 mi West 3.5 mph - N/A   Overcast
2:55 AM 33.8 °F 30.8 °F 32.0 °F 93% 30.22 in 10.0 mi WNW 3.5 mph - N/A   Overcast
3:15 AM 33.8 °F 30.8 °F 32.0 °F 93% 30.21 in 9.0 mi West 3.5 mph - N/A   Overcast
3:35 AM 33.8 °F 30.8 °F 32.0 °F 93% 30.21 in 7.0 mi West 3.5 mph - N/A   Overcast
3:55 AM 33.8 °F 30.8 °F 32.0 °F 93% 30.20 in 5.0 mi West 3.5 mph - N/A   Overcast
4:15 AM 33.8 °F 30.8 °F 32.0 °F 93% 30.19 in 7.0 mi WSW 3.5 mph - N/A   Overcast
4:35 AM 33.8 °F 29.6 °F 32.0 °F 93% 30.18 in 8.0 mi WSW 4.6 mph - N/A   Overcast
4:55 AM 33.8 °F 29.6 °F 32.0 °F 93% 30.18 in 10.0 mi WSW 4.6 mph - N/A   Overcast
5:15 AM 33.8 °F 29.6 °F 32.0 °F 93% 30.18 in 9.0 mi SW 4.6 mph - N/A   Overcast
5:35 AM 33.8 °F 29.6 °F 32.0 °F 93% 30.18 in 10.0 mi WSW 4.6 mph - N/A   Overcast
5:55 AM 33.8 °F 29.6 °F 32.0 °F 93% 30.17 in 10.0 mi SW 4.6 mph - N/A   Overcast
6:15 AM 33.8 °F 30.8 °F 32.0 °F 93% 30.17 in 7.0 mi SW 3.5 mph - N/A   Overcast
6:35 AM 33.8 °F 29.6 °F 32.0 °F 93% 30.16 in 8.0 mi SSW 4.6 mph - N/A   Overcast
6:55 AM 33.8 °F 29.6 °F 32.0 °F 93% 30.15 in 9.0 mi SW 4.6 mph - N/A   Overcast
7:15 AM 33.8 °F 28.6 °F 32.0 °F 93% 30.15 in 9.0 mi SW 5.8 mph - N/A   Overcast
7:35 AM 33.8 °F 28.6 °F 32.0 °F 93% 30.14 in 10.0 mi SW 5.8 mph - N/A   Overcast
7:55 AM 33.8 °F 27.7 °F 32.0 °F 93% 30.13 in 10.0 mi SSW 6.9 mph - N/A   Overcast
8:15 AM 33.8 °F 28.6 °F 32.0 °F 93% 30.13 in 10.0 mi SSW 5.8 mph - N/A   Overcast
8:35 AM 33.8 °F 27.0 °F 32.0 °F 93% 30.12 in 10.0 mi SSW 8.1 mph - N/A   Overcast
8:55 AM 33.8 °F 26.4 °F 32.0 °F 93% 30.11 in 10.0 mi SSW 9.2 mph - N/A   Overcast
9:15 AM 33.8 °F 25.8 °F 32.0 °F 93% 30.10 in 10.0 mi SSW 10.4 mph - N/A   Overcast
9:35 AM 32.0 °F 23.0 °F 32.0 °F 100% 30.10 in 10.0 mi SSW 11.5 mph - N/A   Overcast
9:55 AM 32.0 °F 23.0 °F 32.0 °F 100% 30.08 in 10.0 mi South 11.5 mph - N/A   Overcast
10:15 AM 35.6 °F 26.6 °F 32.0 °F 87% 30.06 in 10.0 mi South 13.8 mph - N/A   Overcast
10:35 AM 35.6 °F 27.5 °F 32.0 °F 87% 30.05 in 10.0 mi SSW 11.5 mph 18.4 mph N/A   Overcast
10:55 AM 37.4 °F 30.3 °F 33.8 °F 87% 30.04 in 10.0 mi South 10.4 mph - N/A   Overcast
11:15 AM 37.4 °F 29.8 °F 35.6 °F 93% 30.02 in 10.0 mi SSW 11.5 mph - N/A   Overcast
11:35 AM 37.4 °F 29.8 °F 35.6 °F 93% 30.00 in 10.0 mi South 11.5 mph - N/A   Overcast
11:55 AM 39.2 °F 33.0 °F 35.6 °F 87% 29.98 in 10.0 mi South 9.2 mph - N/A   Overcast
12:15 PM 39.2 °F 32.0 °F 35.6 °F 87% 29.97 in 10.0 mi South 11.5 mph 19.6 mph N/A   Mostly Cloudy
12:35 PM 39.2 °F 32.5 °F 35.6 °F 87% 29.97 in 10.0 mi SSW 10.4 mph - N/A   Mostly Cloudy
12:55 PM 39.2 °F 31.6 °F 35.6 °F 87% 29.94 in 10.0 mi SSW 12.7 mph 17.3 mph N/A   Overcast
1:15 PM 39.2 °F 33.6 °F 37.4 °F 93% 29.93 in 9.0 mi SSW 8.1 mph - N/A Rain Light Rain
1:35 PM 39.2 °F 31.2 °F 37.4 °F 93% 29.90 in 7.0 mi South 13.8 mph 18.4 mph N/A Rain Light Rain
1:55 PM 41.0 °F 32.2 °F 37.4 °F 87% 29.86 in 7.0 mi South 18.4 mph 24.2 mph N/A Rain Light Rain
2:15 PM 41.0 °F 31.6 °F 39.2 °F 93% 29.84 in 10.0 mi South 20.7 mph 25.3 mph N/A   Mostly Cloudy
2:35 PM 41.0 °F 32.2 °F 39.2 °F 93% 29.82 in 10.0 mi South 18.4 mph 25.3 mph N/A   Overcast
2:55 PM 41.0 °F 31.9 °F 39.2 °F 93% 29.82 in 10.0 mi South 19.6 mph 26.5 mph N/A   Overcast
3:15 PM 41.0 °F 31.9 °F 39.2 °F 93% 29.80 in 10.0 mi South 19.6 mph 28.8 mph N/A   Overcast
3:35 PM 42.8 °F 34.5 °F 39.2 °F 87% 29.80 in 10.0 mi South 18.4 mph - N/A   Overcast
4:15 PM 44.6 °F 37.4 °F 39.2 °F 81% 29.79 in 10.0 mi South 16.1 mph 23.0 mph N/A   Mostly Cloudy
4:35 PM 44.6 °F 37.8 °F 39.2 °F 81% 29.78 in 10.0 mi South 15.0 mph 21.9 mph N/A   Overcast
4:55 PM 44.6 °F 40.7 °F 39.2 °F 81% 29.78 in 10.0 mi SSW 6.9 mph 16.1 mph N/A   Overcast
5:15 PM 46.4 °F 42.4 °F 41.0 °F 81% 29.79 in 10.0 mi SSW 8.1 mph - N/A   Overcast
5:35 PM 44.6 °F 38.1 °F 41.0 °F 87% 29.76 in 10.0 mi South 13.8 mph - N/A   Overcast
5:55 PM 44.6 °F 38.4 °F 39.2 °F 81% 29.77 in 10.0 mi South 12.7 mph - N/A   Scattered Clouds
6:15 PM 44.6 °F 39.7 °F 39.2 °F 81% 29.77 in 10.0 mi South 9.2 mph - N/A   Scattered Clouds
6:35 PM 41.0 °F 39.0 °F 37.4 °F 87% 29.79 in 10.0 mi West 3.5 mph - N/A   Mostly Cloudy
6:55 PM 44.6 °F 40.7 °F 39.2 °F 81% 29.81 in 10.0 mi WNW 6.9 mph - N/A   Overcast
7:15 PM 48.2 °F - 41.0 °F 76% 29.82 in 10.0 mi NW 15.0 mph 21.9 mph N/A   Scattered Clouds
7:35 PM 46.4 °F 39.0 °F 41.0 °F 81% 29.83 in 10.0 mi NW 19.6 mph 31.1 mph N/A   Partly Cloudy
7:55 PM 44.6 °F 36.4 °F 39.2 °F 81% 29.83 in 10.0 mi NW 20.7 mph 29.9 mph N/A   Scattered Clouds
8:15 PM 44.6 °F 34.9 °F 37.4 °F 76% 29.85 in 10.0 mi NW 28.8 mph 36.8 mph N/A   Scattered Clouds
8:35 PM 42.8 °F 32.5 °F 37.4 °F 81% 29.85 in 10.0 mi NNW 28.8 mph 36.8 mph N/A   Scattered Clouds
8:55 PM 42.8 °F 33.8 °F 35.6 °F 76% 29.85 in 10.0 mi NNW 21.9 mph 33.4 mph N/A   Scattered Clouds
9:15 PM 41.0 °F 31.9 °F 35.6 °F 81% 29.88 in 10.0 mi NW 19.6 mph 31.1 mph N/A   Scattered Clouds
9:35 PM 41.0 °F 31.6 °F 35.6 °F 81% 29.90 in 10.0 mi NW 20.7 mph 32.2 mph N/A   Mostly Cloudy
9:55 PM 41.0 °F 33.9 °F 33.8 °F 76% 29.90 in 10.0 mi WNW 12.7 mph 21.9 mph N/A   Mostly Cloudy
10:15 PM 41.0 °F 33.9 °F 32.0 °F 70% 29.91 in 10.0 mi West 12.7 mph - N/A   Mostly Cloudy
10:35 PM 41.0 °F 34.3 °F 32.0 °F 70% 29.91 in 10.0 mi West 11.5 mph - N/A   Mostly Cloudy
10:55 PM 41.0 °F 33.5 °F 32.0 °F 70% 29.92 in 10.0 mi WNW 13.8 mph - N/A   Overcast
11:15 PM 39.2 °F 33.0 °F 32.0 °F 75% 29.92 in 10.0 mi WNW 9.2 mph - N/A   Overcast
11:35 PM 39.2 °F 31.6 °F 32.0 °F 75% 29.92 in 10.0 mi WNW 12.7 mph - N/A   Scattered Clouds
11:55 PM 41.0 °F 32.5 °F 32.0 °F 70% 29.93 in 10.0 mi WNW 17.3 mph 23.0 mph N/A   Scattered Clouds